Benton Harbor, MI

4:38 AM EST on February 27, 2017 (GMT -0500)
Southwest Michigan Regional

Weather History for KBEH - October, 2011

Change the Weather History Date:

Sunday, October 2, 2011

  Actual Average Record
Temperature  
Mean Temperature 44 °F -  
Max Temperature 57 °F 70 °F 86 °F (1971)
Min Temperature 32 °F 46 °F 28 °F (1981)
Degree Days  
Heating Degree Days 20    
Moisture  
Dew Point 39 °F    
Average Humidity 78    
Maximum Humidity 96    
Minimum Humidity 55    
Precipitation  
Precipitation 0.00 in - - ()
Sea Level Pressure  
Sea Level Pressure 30.23 in    
Wind  
Wind Speed 2 mph (North)    
Max Wind Speed 9 mph    
Max Gust Speed 17 mph    
Visibility 10 miles    
Events      
Averages and records for this station are not official NWS values.
T = Trace of Precipitation, MM = Missing Value Source: NWS Daily Summary

Daily Weather History Graph

Daily Weather History Graph

Search for Another Location

Airport or City:

Trip Planner

Search our weather history database for the weather conditions in past years. The results will help you decide how hot, cold, wet, or windy it might be!

Date:

Astronomy

Oct. 02, 2011 Rise Set
Actual Time 7:43 AM EDT 7:26 PM EDT
Civil Twilight 7:15 AM EDT 7:53 PM EDT
Nautical Twilight 6:43 AM EDT 8:26 PM EDT
Astronomical Twilight 6:10 AM EDT 8:58 PM EDT
Moon 1:55 PM EDT (10/2) 11:17 PM EDT (10/2)
Length of Visible Light 12h 38m
Length of Day
11h 42m
Waxing Crescent, 34% of the Moon is Illuminated
Oct 2
Waxing Crescent
Oct 3
First Quarter
Oct 11
Full
Oct 19
Last Quarter
Oct 26
New

Hourly Weather History & Observations

Time (EDT) Temp. Windchill Dew Point Humidity Pressure Visibility Wind Dir Wind Speed Gust Speed Precip Events Conditions
12:53 AM 39.0 °F - 37.9 °F 96% 30.25 in 10.0 mi Calm Calm - N/A   Clear
1:53 AM 39.9 °F - 37.9 °F 93% 30.26 in 10.0 mi Calm Calm - N/A   Clear
2:53 AM 39.0 °F 36.8 °F 37.0 °F 93% 30.26 in 10.0 mi ENE 3.5 mph - N/A   Clear
3:53 AM 37.0 °F - 35.1 °F 93% 30.26 in 10.0 mi Calm Calm - N/A   Clear
4:53 AM 35.1 °F - 34.0 °F 96% 30.26 in 10.0 mi Calm Calm - N/A   Clear
6:53 AM 33.1 °F - 30.9 °F 92% 30.26 in 10.0 mi Calm Calm - N/A   Clear
7:53 AM 32.0 °F - 30.0 °F 92% 30.27 in 10.0 mi Calm Calm - N/A   Clear
8:53 AM 37.0 °F - 35.1 °F 93% 30.27 in 10.0 mi Calm Calm - N/A   Clear
9:53 AM 48.0 °F - 41.0 °F 77% 30.26 in 10.0 mi Calm Calm - N/A   Clear
10:53 AM 52.0 °F - 37.9 °F 59% 30.27 in 10.0 mi Variable 6.9 mph - N/A   Clear
11:53 AM 54.0 °F - 39.0 °F 57% 30.27 in 10.0 mi Variable 6.9 mph - N/A   Clear
12:53 PM 54.0 °F - 41.0 °F 62% 30.27 in 10.0 mi Variable 3.5 mph - N/A   Clear
1:53 PM 55.0 °F - 42.1 °F 62% 30.25 in 10.0 mi NNW 8.1 mph - N/A   Clear
2:53 PM 57.0 °F - 41.0 °F 55% 30.22 in 10.0 mi NNW 9.2 mph - N/A   Clear
3:53 PM 57.0 °F - 42.1 °F 57% 30.19 in 10.0 mi NNW 9.2 mph - N/A   Clear
4:53 PM 57.0 °F - 43.0 °F 59% 30.18 in 10.0 mi WNW 9.2 mph 17.3 mph N/A   Clear
5:53 PM 55.9 °F - 42.1 °F 60% 30.18 in 10.0 mi Variable 5.8 mph - N/A   Clear
6:53 PM 55.0 °F - 41.0 °F 59% 30.17 in 10.0 mi Calm Calm - N/A   Clear
9:53 PM 44.1 °F 42.5 °F 41.0 °F 89% 30.17 in 10.0 mi East 3.5 mph - N/A   Clear
10:53 PM 42.1 °F - 39.9 °F 92% 30.17 in 9.0 mi Calm Calm - N/A   Clear
11:53 PM 42.1 °F - 39.9 °F 92% 30.17 in 10.0 mi Calm Calm - N/A   Clear